Location: Proctor
(47.8934°N, 114.3048°W)
Time: 09:44:19
(UTC+00:00)

Transit 2A - All Passes

Search period start: 21 June 2024 00:00
Search period end: 01 July 2024 00:00
Orbit: 592 x 959 km, 66.7° (Epoch: 20 June)

Date Brightness Start Highest point End Pass type
(mag) Time Alt. Az. Time Alt. Az. Time Alt. Az.
21 Jun - 00:54:34 10° W 00:58:58 27° NW 01:03:46 10° NNE daylight
21 Jun - 02:41:48 10° NW 02:44:13 13° N 02:46:43 10° NNE daylight
21 Jun - 04:26:59 10° NNW 04:30:02 14° NNE 04:33:10 10° NE visible
21 Jun - 06:09:41 10° NNW 06:15:06 33° NE 06:20:43 10° ESE visible
21 Jun - 07:52:38 10° NW 07:58:45 69° WSW 08:05:04 10° SSE visible
21 Jun - 09:38:01 10° WNW 09:40:58 14° WSW 09:43:56 10° SW visible
21 Jun - 22:35:21 10° S 22:40:06 49° ESE 22:45:23 10° NE daylight
22 Jun - 00:18:47 10° WSW 00:23:27 34° NW 00:28:37 10° NNE daylight
22 Jun - 02:05:36 10° NW 02:08:27 14° NNW 02:11:26 10° NNE daylight
22 Jun - 03:51:42 10° NNW 03:54:16 13° N 03:56:55 10° NE daylight
22 Jun - 05:34:32 10° NNW 05:39:35 27° NE 05:44:48 10° E visible
22 Jun - 07:17:20 10° NW 07:23:32 89° NE 07:29:55 10° SSE visible
22 Jun - 09:01:43 10° WNW 09:06:02 20° WSW 09:10:24 10° SSW visible
22 Jun - 22:00:37 10° S 22:05:02 34° ESE 22:09:54 10° NE daylight
22 Jun - 23:43:08 10° WSW 23:48:01 45° NW 23:53:27 10° NNE daylight
23 Jun - 01:29:25 10° WNW 01:32:44 16° NNW 01:36:13 10° NNE daylight
23 Jun - 03:16:15 10° NNW 03:18:29 12° N 03:20:46 10° NNE daylight
23 Jun - 04:59:24 10° NNW 05:03:59 22° NNE 05:08:45 10° E visible
23 Jun - 06:42:07 10° NNW 06:48:15 68° NE 06:54:35 10° SE visible
23 Jun - 08:25:55 10° NW 08:31:03 28° WSW 08:36:15 10° SSW visible
23 Jun - 21:26:09 10° SSE 21:30:03 23° ESE 21:34:15 10° NE daylight
23 Jun - 23:07:39 10° SW 23:12:38 61° NW 23:18:15 10° NNE daylight
24 Jun - 00:53:17 10° WNW 00:57:03 19° NNW 01:01:03 10° NNE daylight
24 Jun - 02:40:34 10° NNW 02:42:41 12° N 02:44:50 10° NNE daylight
24 Jun - 04:24:15 10° NNW 04:28:21 19° NNE 04:32:36 10° ENE visible
24 Jun - 06:06:55 10° NNW 06:12:54 52° NE 06:19:06 10° SE visible
24 Jun - 07:50:20 10° NW 07:56:00 38° WSW 08:01:45 10° S visible
24 Jun - 20:52:07 10° SE 20:55:07 16° ESE 20:58:16 10° ENE daylight
24 Jun - 22:32:19 10° SW 22:37:21 84° NW 22:43:00 10° NE daylight
25 Jun - 00:17:16 10° W 00:21:25 22° NNW 00:25:54 10° NNE daylight
25 Jun - 02:04:38 10° NNW 02:06:52 12° N 02:09:11 10° NNE daylight
25 Jun - 03:49:04 10° NNW 03:52:39 16° NNE 03:56:22 10° ENE daylight
25 Jun - 05:31:45 10° NNW 05:37:29 41° NE 05:43:26 10° ESE visible
25 Jun - 07:14:53 10° NW 07:20:53 52° WSW 07:27:00 10° S visible
25 Jun - 20:19:28 10° ESE 20:20:15 10° E 20:21:01 10° E daylight
25 Jun - 21:57:10 10° SSW 22:02:07 70° ESE 22:07:42 10° NE daylight
25 Jun - 23:41:21 10° W 23:45:50 28° NW 23:50:45 10° NNE daylight
26 Jun - 01:28:32 10° NW 01:31:05 13° N 01:33:43 10° NNE daylight
26 Jun - 03:13:50 10° NNW 03:16:55 14° NNE 03:20:06 10° NE daylight
26 Jun - 04:56:35 10° NNW 05:02:01 32° NE 05:07:38 10° ESE visible
26 Jun - 06:39:32 10° NW 06:45:42 71° WSW 06:52:01 10° SSE visible
26 Jun - 08:24:50 10° WNW 08:27:55 14° WSW 08:31:00 10° SW visible
26 Jun - 21:22:12 10° S 21:26:59 48° ESE 21:32:19 10° NE daylight
26 Jun - 23:05:35 10° WSW 23:10:20 35° NW 23:15:35 10° NNE daylight
27 Jun - 00:52:21 10° NW 00:55:19 14° NNW 00:58:26 10° NNE daylight
27 Jun - 02:38:30 10° NNW 02:41:09 13° N 02:43:51 10° NE daylight
27 Jun - 04:21:25 10° NNW 04:26:28 26° NE 04:31:42 10° E visible
27 Jun - 06:04:15 10° NW 06:10:28 88° ENE 06:16:51 10° SE visible
27 Jun - 07:48:35 10° WNW 07:52:59 20° WSW 07:57:25 10° SSW visible
27 Jun - 20:47:28 10° S 20:51:55 33° ESE 20:56:49 10° NE daylight
27 Jun - 22:29:57 10° WSW 22:34:53 46° NW 22:40:24 10° NNE daylight
28 Jun - 00:16:10 10° WNW 00:19:35 16° NNW 00:23:12 10° NNE daylight
28 Jun - 02:03:01 10° NNW 02:05:21 12° N 02:07:43 10° NNE daylight
28 Jun - 03:46:16 10° NNW 03:50:53 22° NNE 03:55:39 10° E daylight
28 Jun - 05:29:00 10° NNW 05:35:10 67° NE 05:41:30 10° SE visible
28 Jun - 07:12:47 10° NW 07:17:59 28° WSW 07:23:13 10° SSW visible
28 Jun - 20:13:00 10° SSE 20:16:55 23° ESE 20:21:10 10° ENE daylight
28 Jun - 21:54:27 10° SW 21:59:30 63° NW 22:05:11 10° NNE daylight
28 Jun - 23:40:02 10° WNW 23:43:54 19° NNW 23:48:01 10° NNE daylight
29 Jun - 01:27:18 10° NNW 01:29:31 12° N 01:31:48 10° NNE daylight
29 Jun - 03:11:06 10° NNW 03:15:13 19° NNE 03:19:29 10° ENE daylight
29 Jun - 04:53:47 10° NNW 04:59:48 52° NE 05:05:59 10° ESE visible
29 Jun - 06:37:12 10° NW 06:42:55 39° WSW 06:48:42 10° S visible
29 Jun - 19:38:59 10° SE 19:41:59 16° ESE 19:45:09 10° ENE daylight
29 Jun - 21:19:08 10° SW 21:24:12 86° NW 21:29:56 10° NE daylight
29 Jun - 23:04:01 10° W 23:08:16 23° NNW 23:12:51 10° NNE daylight
30 Jun - 00:51:22 10° NNW 00:53:43 12° N 00:56:09 10° NNE daylight
30 Jun - 02:35:54 10° NNW 02:39:31 16° NNE 02:43:15 10° ENE daylight
30 Jun - 04:18:36 10° NNW 04:24:22 40° NE 04:30:19 10° ESE visible
30 Jun - 06:01:46 10° NW 06:07:48 53° WSW 06:13:55 10° S visible
30 Jun - 19:06:28 10° ESE 19:07:07 10° E 19:07:48 10° E daylight
30 Jun - 20:43:58 10° SSW 20:48:59 68° ESE 20:54:36 10° NE daylight
30 Jun - 22:28:07 10° W 22:32:41 28° NW 22:37:41 10° NNE daylight
